DLJ560Y LEZL-GVAC

Flight info

Callsign DLJ560Y
Flight time N/A
Altitude 41000
Route CLANA N857 KORNO/N0514F430 UN857 TERTO N857 DEREV/N0519F440 N857 GUNET UW11 PINPO
Aircraft C750/M-SBDE3FGHRWXY/S

Departure

Time 2026-04-29 17:16
Airport Seville Airport (LEZL)

Arrival

Time N/A
Airport Amílcar Cabral International Airport (GVAC)
Time Latitude Longitude Altitude Speed Heading
2026-04-29 17:04 37.42075 -5.90475 83 ft 0 kts 269°
2026-04-29 17:11 37.42075 -5.90476 83 ft 0 kts 269°
2026-04-29 17:11 37.42075 -5.90492 83 ft 2 kts 267°
2026-04-29 17:11 37.42061 -5.90527 82 ft 8 kts 193°
2026-04-29 17:12 37.41981 -5.90512 82 ft 15 kts 120°
2026-04-29 17:12 37.41979 -5.90335 84 ft 25 kts 91°
2026-04-29 17:12 37.41981 -5.90058 85 ft 36 kts 90°
2026-04-29 17:12 37.41980 -5.89837 88 ft 39 kts 92°
2026-04-29 17:13 37.41980 -5.89336 88 ft 46 kts 90°
2026-04-29 17:13 37.41984 -5.88910 88 ft 51 kts 86°
2026-04-29 17:13 37.41983 -5.88461 92 ft 50 kts 90°
2026-04-29 17:13 37.41972 -5.88037 98 ft 46 kts 79°
2026-04-29 17:14 37.41989 -5.87734 101 ft 28 kts 89°
2026-04-29 17:14 37.41970 -5.87502 104 ft 25 kts 114°
2026-04-29 17:14 37.41837 -5.87437 104 ft 21 kts 201°
2026-04-29 17:14 37.41798 -5.87581 103 ft 12 kts 269°
2026-04-29 17:15 37.41798 -5.87587 103 ft 0 kts 271°
2026-04-29 17:15 37.41795 -5.87804 98 ft 68 kts 271°
2026-04-29 17:15 37.41790 -5.88805 88 ft 153 kts 266°
2026-04-29 17:15 37.41770 -5.90270 553 ft 186 kts 269°
2026-04-29 17:16 37.41972 -5.92039 1312 ft 219 kts 293°
2026-04-29 17:16 37.42702 -5.93524 2762 ft 200 kts 300°
2026-04-29 17:16 37.43402 -5.95066 3586 ft 210 kts 287°
2026-04-29 17:16 37.43766 -5.96846 4386 ft 219 kts 275°
2026-04-29 17:17 37.43966 -5.98792 5143 ft 234 kts 272°
2026-04-29 17:17 37.44111 -6.00863 5939 ft 249 kts 270°
2026-04-29 17:17 37.44233 -6.03110 6771 ft 262 kts 266°
2026-04-29 17:17 37.43751 -6.05224 7693 ft 261 kts 232°
2026-04-29 17:18 37.42317 -6.06558 8716 ft 263 kts 202°
2026-04-29 17:18 37.40550 -6.07006 9700 ft 268 kts 185°
2026-04-29 17:18 37.38660 -6.07008 10587 ft 276 kts 182°
2026-04-29 17:18 37.36712 -6.06907 11198 ft 292 kts 181°
2026-04-29 17:19 37.34650 -6.06758 11862 ft 304 kts 181°
2026-04-29 17:19 37.32532 -6.06594 12690 ft 309 kts 181°
2026-04-29 17:19 37.30379 -6.06428 13541 ft 313 kts 181°
2026-04-29 17:19 37.28221 -6.06441 14346 ft 312 kts 193°
2026-04-29 17:20 37.26244 -6.07423 15103 ft 309 kts 214°
2026-04-29 17:20 37.24419 -6.08881 15929 ft 310 kts 216°
2026-04-29 17:20 37.22645 -6.10402 16721 ft 312 kts 217°
2026-04-29 17:20 37.21823 -6.11117 17069 ft 313 kts 217°
2026-04-29 17:21 37.20021 -6.12695 17793 ft 317 kts 218°
2026-04-29 17:21 37.18221 -6.14276 18479 ft 321 kts 218°
2026-04-29 17:21 37.16394 -6.15874 19181 ft 323 kts 218°
2026-04-29 17:21 37.14531 -6.17507 19848 ft 326 kts 218°
2026-04-29 17:22 37.12685 -6.19126 20484 ft 329 kts 218°
2026-04-29 17:22 37.10805 -6.20769 21111 ft 333 kts 218°
2026-04-29 17:22 37.08909 -6.22430 21702 ft 336 kts 218°
2026-04-29 17:22 37.06981 -6.24114 22293 ft 339 kts 219°
2026-04-29 17:23 37.05038 -6.25811 22879 ft 342 kts 219°
2026-04-29 17:23 37.04122 -6.26611 23147 ft 343 kts 219°
2026-04-29 17:23 37.03364 -6.27272 23338 ft 345 kts 219°
2026-04-29 17:24 37.01384 -6.28959 23885 ft 347 kts 220°
2026-04-29 17:24 37.01269 -6.29063 23921 ft 347 kts 220°
2026-04-29 17:24 37.00608 -6.29659 24115 ft 348 kts 219°
2026-04-29 17:24 36.98607 -6.31412 24665 ft 351 kts 219°
2026-04-29 17:25 36.96619 -6.33149 25166 ft 354 kts 219°
2026-04-29 17:25 36.94586 -6.34918 25651 ft 357 kts 219°
2026-04-29 17:25 36.92545 -6.36695 26125 ft 360 kts 219°
2026-04-29 17:25 36.90492 -6.38481 26640 ft 362 kts 219°
2026-04-29 17:26 36.88408 -6.40290 27093 ft 365 kts 219°
2026-04-29 17:26 36.86346 -6.42083 27574 ft 367 kts 219°
2026-04-29 17:26 36.84230 -6.43918 28027 ft 369 kts 219°
2026-04-29 17:26 36.82118 -6.45751 28424 ft 372 kts 219°
2026-04-29 17:27 36.80001 -6.47584 28848 ft 375 kts 219°
2026-04-29 17:27 36.77841 -6.49454 29245 ft 378 kts 219°
2026-04-29 17:27 36.75705 -6.51303 29633 ft 380 kts 219°
2026-04-29 17:27 36.73532 -6.53181 30041 ft 382 kts 218°
2026-04-29 17:28 36.71328 -6.55086 30439 ft 384 kts 219°
2026-04-29 17:28 36.69149 -6.56965 30788 ft 387 kts 219°
2026-04-29 17:28 36.66924 -6.58887 31135 ft 389 kts 219°
2026-04-29 17:28 36.64693 -6.60810 31433 ft 393 kts 219°
2026-04-29 17:29 36.62437 -6.62754 31775 ft 395 kts 219°
2026-04-29 17:29 36.60180 -6.64696 32097 ft 397 kts 219°
2026-04-29 17:29 36.57914 -6.66646 32423 ft 399 kts 218°
2026-04-29 17:29 36.55629 -6.68612 32691 ft 403 kts 218°
2026-04-29 17:30 36.53318 -6.70598 32993 ft 406 kts 218°
2026-04-29 17:30 36.50972 -6.72607 33310 ft 408 kts 217°
2026-04-29 17:30 36.48500 -6.74390 33546 ft 412 kts 218°
2026-04-29 17:30 36.46461 -6.76792 33803 ft 407 kts 231°
2026-04-29 17:31 36.44418 -6.79228 34061 ft 413 kts 224°
2026-04-29 17:31 36.42234 -6.81559 34399 ft 415 kts 224°
2026-04-29 17:31 36.40042 -6.83847 34844 ft 414 kts 223°
2026-04-29 17:31 36.37820 -6.86144 35298 ft 413 kts 223°
2026-04-29 17:32 36.35632 -6.88396 35712 ft 412 kts 223°
2026-04-29 17:32 36.33427 -6.90663 36133 ft 411 kts 223°
2026-04-29 17:32 36.31237 -6.92911 36537 ft 410 kts 223°
2026-04-29 17:32 36.29034 -6.95168 36926 ft 409 kts 223°
2026-04-29 17:33 36.26860 -6.97396 37316 ft 408 kts 223°
2026-04-29 17:33 36.24666 -6.99642 37641 ft 409 kts 223°
2026-04-29 17:33 36.22487 -7.01870 37966 ft 409 kts 223°
2026-04-29 17:33 36.20318 -7.04090 38294 ft 409 kts 223°
2026-04-29 17:34 36.18119 -7.06335 38628 ft 408 kts 223°
2026-04-29 17:34 36.15923 -7.08577 38925 ft 408 kts 223°
2026-04-29 17:34 36.13755 -7.10789 39221 ft 408 kts 223°
2026-04-29 17:34 36.11566 -7.13021 39476 ft 408 kts 223°
2026-04-29 17:35 36.07921 -7.16732 39934 ft 408 kts 223°
2026-04-29 17:35 36.05001 -7.19703 40228 ft 408 kts 223°
2026-04-29 17:35 36.02817 -7.21925 40452 ft 408 kts 223°
2026-04-29 17:36 36.00609 -7.24167 40628 ft 408 kts 223°
2026-04-29 17:36 35.98439 -7.26370 40794 ft 408 kts 223°
2026-04-29 17:36 35.96243 -7.28594 40937 ft 409 kts 223°
2026-04-29 17:36 35.94062 -7.30807 41088 ft 409 kts 223°
2026-04-29 17:37 35.91858 -7.33035 41214 ft 410 kts 223°
2026-04-29 17:37 35.89651 -7.35269 41361 ft 410 kts 223°
2026-04-29 17:37 35.87447 -7.37498 41501 ft 410 kts 223°
2026-04-29 17:37 35.85262 -7.39706 41634 ft 411 kts 223°
2026-04-29 17:38 35.83062 -7.41926 41751 ft 411 kts 223°
2026-04-29 17:38 35.80825 -7.44161 41901 ft 411 kts 222°
2026-04-29 17:38 35.78611 -7.46373 41998 ft 412 kts 222°
2026-04-29 17:38 35.76388 -7.48590 42121 ft 412 kts 222°
2026-04-29 17:39 35.74183 -7.50792 42238 ft 413 kts 222°
2026-04-29 17:39 35.71933 -7.53034 42369 ft 412 kts 222°
2026-04-29 17:39 35.69735 -7.55224 42473 ft 412 kts 222°
2026-04-29 17:39 35.67502 -7.57447 42594 ft 412 kts 222°
2026-04-29 17:40 35.65268 -7.59669 42693 ft 413 kts 222°
2026-04-29 17:40 35.63046 -7.61875 42817 ft 412 kts 222°
2026-04-29 17:40 35.60808 -7.64099 42909 ft 413 kts 222°
2026-04-29 17:41 35.56324 -7.68548 42941 ft 418 kts 221°
2026-04-29 17:41 35.51791 -7.73041 42946 ft 424 kts 221°
2026-04-29 17:42 35.47154 -7.77628 42943 ft 431 kts 221°
2026-04-29 17:42 35.42489 -7.82235 42943 ft 437 kts 221°
2026-04-29 17:43 35.37711 -7.87001 42942 ft 442 kts 221°
2026-04-29 17:43 35.33814 -7.90897 42941 ft 447 kts 222°
2026-04-29 17:44 35.28945 -7.95757 42943 ft 452 kts 222°
2026-04-29 17:44 35.24059 -8.00628 42943 ft 458 kts 221°
2026-04-29 17:45 35.19110 -8.05552 42941 ft 463 kts 221°
2026-04-29 17:45 35.14094 -8.10535 42940 ft 467 kts 221°
2026-04-29 17:46 35.09025 -8.15564 42943 ft 470 kts 221°
2026-04-29 17:46 35.03954 -8.20587 42941 ft 473 kts 221°
2026-04-29 17:47 34.98825 -8.25654 42941 ft 475 kts 221°
2026-04-29 17:47 34.93723 -8.30691 42939 ft 476 kts 221°
2026-04-29 17:48 34.88576 -8.35763 42940 ft 476 kts 221°
2026-04-29 17:48 34.83414 -8.40838 42936 ft 476 kts 221°
2026-04-29 17:49 34.78287 -8.45875 42933 ft 476 kts 221°
2026-04-29 17:49 34.73125 -8.50934 42925 ft 476 kts 221°
2026-04-29 17:50 34.68002 -8.55950 42929 ft 476 kts 221°
2026-04-29 17:50 34.62859 -8.60975 42929 ft 475 kts 221°
2026-04-29 17:51 34.57698 -8.66010 42930 ft 475 kts 221°
2026-04-29 17:51 34.52564 -8.71011 42937 ft 475 kts 221°
2026-04-29 17:52 34.47435 -8.75997 42948 ft 475 kts 221°
2026-04-29 17:52 34.42265 -8.81003 42958 ft 475 kts 221°
2026-04-29 17:53 34.37102 -8.85970 42959 ft 475 kts 221°
2026-04-29 17:53 34.31921 -8.90947 42962 ft 475 kts 221°
2026-04-29 17:54 34.26757 -8.95900 42961 ft 475 kts 221°
2026-04-29 17:54 34.21606 -9.00830 42961 ft 475 kts 220°
2026-04-29 17:55 34.16408 -9.05798 42966 ft 475 kts 220°
2026-04-29 17:55 34.11236 -9.10735 42961 ft 475 kts 221°
2026-04-29 17:56 34.06089 -9.15638 42963 ft 475 kts 221°
2026-04-29 17:56 34.00889 -9.20588 42966 ft 475 kts 221°
2026-04-29 17:57 33.95728 -9.25488 42960 ft 474 kts 221°
2026-04-29 17:57 33.90568 -9.30385 42958 ft 474 kts 220°
2026-04-29 17:58 33.85402 -9.35274 42963 ft 474 kts 221°
2026-04-29 17:58 33.80226 -9.40168 42967 ft 474 kts 221°
2026-04-29 17:59 33.75055 -9.45047 42957 ft 474 kts 220°
2026-04-29 17:59 33.69881 -9.49922 42950 ft 474 kts 220°
2026-04-29 18:00 33.64691 -9.54805 42948 ft 474 kts 220°
2026-04-29 18:00 33.59517 -9.59666 42949 ft 474 kts 220°
2026-04-29 18:01 33.54339 -9.64522 42948 ft 473 kts 220°
2026-04-29 18:01 33.49142 -9.69388 42955 ft 473 kts 220°
2026-04-29 18:02 33.43970 -9.74226 42958 ft 473 kts 220°
2026-04-29 18:02 33.38811 -9.79040 42958 ft 472 kts 220°
2026-04-29 18:03 33.33626 -9.83873 42960 ft 472 kts 220°
2026-04-29 18:03 33.28450 -9.88690 42964 ft 471 kts 220°
2026-04-29 18:04 33.23315 -9.93461 42963 ft 471 kts 220°
2026-04-29 18:04 33.18145 -9.98258 42966 ft 471 kts 220°
2026-04-29 18:05 33.12985 -10.03039 42962 ft 470 kts 220°
2026-04-29 18:05 33.07814 -10.07819 42964 ft 470 kts 220°
2026-04-29 18:06 33.02668 -10.12574 42960 ft 470 kts 220°
2026-04-29 18:06 32.97508 -10.17326 42961 ft 470 kts 220°
2026-04-29 18:07 32.92324 -10.22091 42960 ft 469 kts 220°
2026-04-29 18:07 32.87196 -10.26801 42964 ft 469 kts 220°
2026-04-29 18:08 32.82018 -10.31546 42963 ft 470 kts 220°
2026-04-29 18:08 32.76837 -10.36289 42960 ft 470 kts 220°
2026-04-29 18:09 32.71693 -10.40989 42962 ft 470 kts 220°
2026-04-29 18:09 32.66530 -10.45700 42961 ft 469 kts 220°
2026-04-29 18:10 32.61353 -10.50418 42961 ft 469 kts 220°
2026-04-29 18:10 32.56189 -10.55116 42960 ft 469 kts 220°
2026-04-29 18:11 32.51020 -10.59812 42961 ft 469 kts 220°
2026-04-29 18:11 32.45829 -10.64522 42959 ft 469 kts 220°
2026-04-29 18:12 32.40646 -10.69216 42964 ft 469 kts 219°
2026-04-29 18:12 32.35478 -10.73888 42966 ft 470 kts 219°
2026-04-29 18:13 32.30296 -10.78571 42966 ft 470 kts 219°
2026-04-29 18:13 32.25098 -10.83257 42964 ft 470 kts 219°
2026-04-29 18:14 32.19895 -10.87942 42966 ft 470 kts 219°
2026-04-29 18:14 32.14721 -10.92592 42963 ft 470 kts 219°
2026-04-29 18:15 32.09543 -10.97242 42961 ft 470 kts 219°
2026-04-29 18:15 32.04327 -11.01918 42961 ft 470 kts 219°
2026-04-29 18:16 31.99129 -11.06571 42961 ft 470 kts 219°
2026-04-29 18:16 31.93939 -11.11212 42961 ft 470 kts 219°
2026-04-29 18:17 31.88760 -11.15834 42964 ft 470 kts 219°
2026-04-29 18:17 31.83559 -11.20469 42966 ft 469 kts 219°
2026-04-29 18:18 31.78365 -11.25091 42965 ft 469 kts 219°
2026-04-29 18:18 31.73193 -11.29696 42964 ft 468 kts 219°
2026-04-29 18:19 31.67979 -11.34346 42959 ft 468 kts 219°
2026-04-29 18:19 31.62803 -11.38958 42962 ft 468 kts 219°
2026-04-29 18:20 31.57658 -11.43531 42961 ft 468 kts 219°
2026-04-29 18:20 31.52443 -11.48164 42958 ft 468 kts 219°
2026-04-29 18:21 31.47278 -11.52744 42959 ft 468 kts 219°
2026-04-29 18:21 31.42087 -11.57341 42956 ft 468 kts 219°
2026-04-29 18:22 31.36911 -11.61918 42962 ft 468 kts 219°
2026-04-29 18:22 31.31725 -11.66497 42971 ft 467 kts 219°
2026-04-29 18:23 31.26514 -11.71092 42978 ft 467 kts 219°
2026-04-29 18:23 31.21353 -11.75636 42980 ft 467 kts 219°
2026-04-29 18:24 31.16166 -11.80197 42982 ft 467 kts 219°
2026-04-29 18:24 31.10988 -11.84744 42980 ft 467 kts 218°
2026-04-29 18:25 31.05802 -11.89292 42977 ft 467 kts 219°
2026-04-29 18:25 31.00633 -11.93818 42976 ft 467 kts 219°
2026-04-29 18:26 30.95435 -11.98362 42982 ft 467 kts 218°
2026-04-29 18:26 30.90259 -12.02881 42985 ft 467 kts 219°
2026-04-29 18:27 30.85057 -12.07418 42985 ft 467 kts 218°
2026-04-29 18:27 30.79863 -12.11939 42987 ft 467 kts 219°
2026-04-29 18:28 30.74674 -12.16453 42985 ft 466 kts 219°
2026-04-29 18:28 30.69495 -12.20950 42988 ft 466 kts 219°
2026-04-29 18:29 30.64290 -12.25465 42985 ft 466 kts 219°
2026-04-29 18:29 30.59122 -12.29936 42979 ft 466 kts 219°
2026-04-29 18:30 30.53952 -12.34411 42971 ft 465 kts 219°
2026-04-29 18:30 30.48768 -12.38880 42967 ft 465 kts 219°
2026-04-29 18:31 30.43562 -12.43357 42963 ft 465 kts 219°
2026-04-29 18:31 30.38378 -12.47807 42969 ft 465 kts 219°
2026-04-29 18:32 30.33203 -12.52243 42964 ft 464 kts 219°
2026-04-29 18:32 30.25403 -12.58919 42958 ft 464 kts 219°
2026-04-29 18:33 30.20210 -12.63354 42953 ft 464 kts 219°
2026-04-29 18:33 30.15014 -12.67789 42964 ft 464 kts 218°
2026-04-29 18:34 30.10684 -12.71480 42968 ft 464 kts 218°
2026-04-29 18:34 30.04641 -12.76645 42963 ft 464 kts 218°
2026-04-29 18:35 29.99459 -12.81074 42960 ft 464 kts 218°
2026-04-29 18:35 29.94285 -12.85484 42960 ft 464 kts 219°
2026-04-29 18:36 29.89108 -12.89897 42960 ft 464 kts 219°
2026-04-29 18:36 29.83920 -12.94310 42968 ft 464 kts 219°
2026-04-29 18:37 29.78733 -12.98716 42963 ft 464 kts 219°
2026-04-29 18:37 29.73532 -13.03128 42962 ft 464 kts 219°
2026-04-29 18:38 29.68342 -13.07527 42965 ft 464 kts 219°
2026-04-29 18:38 29.63143 -13.11924 42964 ft 464 kts 219°
2026-04-29 18:39 29.57962 -13.16305 42962 ft 464 kts 219°
2026-04-29 18:39 29.52793 -13.20663 42961 ft 463 kts 219°
2026-04-29 18:40 29.47600 -13.25043 42963 ft 463 kts 219°
2026-04-29 18:40 29.42432 -13.29393 42964 ft 462 kts 219°
2026-04-29 18:41 29.32040 -13.38126 42966 ft 462 kts 219°
2026-04-29 18:42 29.26867 -13.42463 42963 ft 462 kts 219°
2026-04-29 18:42 29.21693 -13.46793 42964 ft 461 kts 219°
2026-04-29 18:43 29.16543 -13.51100 42963 ft 461 kts 218°
2026-04-29 18:43 29.11094 -13.54995 42961 ft 462 kts 215°
2026-04-29 18:44 29.05614 -13.58904 42968 ft 462 kts 215°
2026-04-29 18:44 29.00201 -13.62765 42971 ft 462 kts 215°
2026-04-29 18:45 28.94726 -13.66662 42983 ft 461 kts 214°
2026-04-29 18:45 28.89301 -13.70523 42979 ft 462 kts 215°
2026-04-29 18:46 28.83861 -13.74386 42980 ft 462 kts 214°
2026-04-29 18:46 28.78379 -13.78276 42978 ft 462 kts 214°
2026-04-29 18:47 28.72959 -13.82114 42974 ft 462 kts 215°
2026-04-29 18:47 28.67479 -13.85993 42974 ft 462 kts 215°
2026-04-29 18:48 28.62030 -13.89846 42982 ft 461 kts 215°
2026-04-29 18:48 28.56591 -13.93686 42988 ft 461 kts 215°
2026-04-29 18:49 28.51173 -13.97508 42991 ft 460 kts 215°
2026-04-29 18:49 28.45703 -14.01359 42989 ft 460 kts 215°
2026-04-29 18:50 28.40278 -14.05171 42990 ft 460 kts 215°
2026-04-29 18:50 28.34851 -14.08984 42974 ft 461 kts 215°
2026-04-29 18:51 28.29415 -14.12802 42970 ft 460 kts 215°
2026-04-29 18:51 28.23983 -14.16607 42973 ft 460 kts 215°
2026-04-29 18:52 28.18512 -14.20434 42965 ft 460 kts 215°
2026-04-29 18:52 28.13084 -14.24229 42961 ft 460 kts 215°
2026-04-29 18:53 28.07628 -14.28036 43101 ft 456 kts 215°
2026-04-29 18:53 28.04970 -14.29892 43262 ft 453 kts 215°
2026-04-29 18:53 28.02254 -14.31785 43422 ft 451 kts 216°
2026-04-29 18:54 27.99602 -14.33636 43589 ft 449 kts 216°
2026-04-29 18:54 27.96958 -14.35475 43755 ft 447 kts 216°
2026-04-29 18:54 27.94308 -14.37320 43930 ft 445 kts 216°
2026-04-29 18:54 27.91674 -14.39150 43948 ft 447 kts 216°
2026-04-29 18:55 27.86368 -14.42843 43972 ft 449 kts 216°
2026-04-29 18:55 27.81036 -14.46541 43968 ft 451 kts 216°
2026-04-29 18:56 27.75691 -14.50246 43977 ft 454 kts 216°
2026-04-29 18:56 27.70318 -14.53970 43973 ft 455 kts 216°
2026-04-29 18:57 27.64923 -14.57704 43974 ft 455 kts 216°
2026-04-29 18:57 27.59522 -14.61432 43958 ft 455 kts 216°
2026-04-29 18:58 27.54130 -14.65153 43966 ft 455 kts 215°
2026-04-29 18:58 27.48705 -14.68892 43972 ft 456 kts 215°
2026-04-29 18:59 27.43304 -14.72612 43963 ft 456 kts 216°
2026-04-29 18:59 27.37898 -14.76328 43967 ft 456 kts 216°
2026-04-29 19:00 27.32512 -14.80027 43974 ft 456 kts 216°
2026-04-29 19:00 27.27103 -14.83739 43974 ft 456 kts 216°
2026-04-29 19:01 27.21687 -14.87452 43963 ft 456 kts 216°
2026-04-29 19:01 27.16262 -14.91164 43964 ft 455 kts 216°
2026-04-29 19:02 27.11762 -14.94243 43963 ft 455 kts 216°
2026-04-29 19:02 27.05464 -14.98543 43968 ft 455 kts 216°
2026-04-29 19:03 27.00071 -15.02220 43958 ft 454 kts 216°
2026-04-29 19:03 26.94710 -15.05876 43975 ft 453 kts 216°
2026-04-29 19:04 26.89319 -15.09548 43964 ft 453 kts 216°
2026-04-29 19:04 26.83898 -15.13229 43962 ft 454 kts 216°
2026-04-29 19:05 26.78506 -15.16887 43963 ft 454 kts 216°
2026-04-29 19:05 26.73130 -15.20539 43969 ft 454 kts 216°
2026-04-29 19:06 26.67756 -15.24180 43968 ft 453 kts 216°
2026-04-29 19:07 26.59652 -15.29664 43959 ft 453 kts 216°
2026-04-29 19:07 26.54282 -15.33293 43956 ft 453 kts 216°
2026-04-29 19:08 26.48886 -15.36933 43953 ft 452 kts 216°
2026-04-29 19:08 26.43515 -15.40552 43963 ft 452 kts 216°
2026-04-29 19:09 26.38134 -15.44182 43964 ft 452 kts 216°
2026-04-29 19:09 26.32754 -15.47795 43966 ft 452 kts 216°
2026-04-29 19:10 26.27369 -15.51415 43966 ft 452 kts 216°
2026-04-29 19:10 26.21987 -15.55028 43960 ft 452 kts 216°
2026-04-29 19:11 26.16628 -15.58620 43959 ft 451 kts 216°
2026-04-29 19:11 26.11265 -15.62211 43954 ft 451 kts 216°
2026-04-29 19:12 26.05907 -15.65796 43971 ft 450 kts 216°
2026-04-29 19:12 26.00534 -15.69389 43939 ft 450 kts 216°
2026-04-29 19:13 25.95157 -15.72979 43950 ft 449 kts 216°
2026-04-29 19:13 25.89820 -15.76535 43965 ft 448 kts 216°
2026-04-29 19:14 25.84473 -15.80100 43975 ft 450 kts 216°
2026-04-29 19:14 25.79069 -15.83692 43962 ft 451 kts 217°
2026-04-29 19:15 25.73720 -15.87252 43967 ft 451 kts 216°
2026-04-29 19:15 25.68325 -15.90831 43961 ft 451 kts 217°
2026-04-29 19:16 25.62958 -15.94394 43972 ft 451 kts 217°
2026-04-29 19:16 25.57597 -15.97943 43971 ft 450 kts 217°
2026-04-29 19:17 25.52208 -16.01507 43966 ft 450 kts 217°
2026-04-29 19:17 25.46870 -16.05040 43966 ft 450 kts 216°
2026-04-29 19:18 25.41476 -16.08603 43966 ft 449 kts 217°
2026-04-29 19:18 25.36144 -16.12119 43966 ft 448 kts 217°
2026-04-29 19:19 25.30778 -16.15658 43958 ft 448 kts 217°
2026-04-29 19:19 25.25450 -16.19170 43963 ft 447 kts 217°
2026-04-29 19:20 25.20104 -16.22686 43959 ft 447 kts 218°
2026-04-29 19:20 25.14754 -16.26196 43962 ft 447 kts 217°
2026-04-29 19:21 25.09427 -16.29698 43967 ft 446 kts 218°
2026-04-29 19:21 25.04107 -16.33186 43967 ft 446 kts 217°
2026-04-29 19:22 24.98767 -16.36679 43965 ft 445 kts 217°
2026-04-29 19:22 24.93467 -16.40145 43967 ft 445 kts 218°
2026-04-29 19:23 24.88140 -16.43633 43976 ft 444 kts 218°
2026-04-29 19:23 24.82824 -16.47105 43965 ft 444 kts 217°
2026-04-29 19:24 24.77516 -16.50565 43968 ft 443 kts 218°
2026-04-29 19:24 24.72240 -16.54003 43973 ft 443 kts 218°
2026-04-29 19:25 24.66913 -16.57470 43953 ft 443 kts 218°
2026-04-29 19:25 24.61631 -16.60903 43952 ft 443 kts 218°
2026-04-29 19:26 24.56342 -16.64344 43961 ft 442 kts 217°
2026-04-29 19:26 24.51051 -16.67776 43985 ft 441 kts 218°
2026-04-29 19:27 24.45782 -16.71188 43976 ft 441 kts 217°
2026-04-29 19:27 24.40493 -16.74618 43968 ft 440 kts 217°
2026-04-29 19:28 24.35238 -16.78020 43975 ft 440 kts 218°
2026-04-29 19:28 24.29961 -16.81428 43982 ft 441 kts 218°
2026-04-29 19:29 24.24666 -16.84850 43972 ft 440 kts 217°
2026-04-29 19:29 24.19389 -16.88253 43966 ft 439 kts 218°
2026-04-29 19:30 24.14156 -16.91625 43982 ft 438 kts 218°
2026-04-29 19:30 24.08877 -16.95029 43983 ft 436 kts 218°
2026-04-29 19:31 24.03659 -16.98382 43976 ft 436 kts 218°
2026-04-29 19:31 23.98442 -17.01735 43985 ft 436 kts 218°
2026-04-29 19:32 23.93209 -17.05101 43993 ft 436 kts 218°
2026-04-29 19:32 23.87979 -17.08456 43979 ft 437 kts 218°
2026-04-29 19:33 23.82735 -17.11818 43995 ft 436 kts 218°
2026-04-29 19:33 23.77523 -17.15156 43987 ft 436 kts 218°
2026-04-29 19:34 23.72267 -17.18514 43986 ft 436 kts 218°
2026-04-29 19:34 23.67035 -17.21857 43986 ft 437 kts 218°
2026-04-29 19:35 23.61773 -17.25217 43982 ft 437 kts 218°
2026-04-29 19:35 23.56545 -17.28555 43966 ft 437 kts 218°
2026-04-29 19:36 23.51293 -17.31899 43967 ft 437 kts 218°
2026-04-29 19:36 23.46047 -17.35238 43973 ft 437 kts 218°
2026-04-29 19:37 23.40789 -17.38588 43974 ft 436 kts 218°
2026-04-29 19:37 23.35558 -17.41914 43982 ft 437 kts 218°
2026-04-29 19:38 23.30322 -17.45238 43968 ft 437 kts 218°
2026-04-29 19:38 23.25057 -17.48573 43975 ft 437 kts 218°
2026-04-29 19:39 23.19797 -17.51908 43957 ft 438 kts 218°
2026-04-29 19:39 23.14552 -17.55231 43973 ft 437 kts 218°
2026-04-29 19:40 23.09289 -17.58555 43980 ft 437 kts 218°
2026-04-29 19:40 23.04037 -17.61876 43947 ft 438 kts 218°
2026-04-29 19:41 22.98767 -17.65205 43947 ft 439 kts 217°
2026-04-29 19:41 22.93505 -17.68528 43982 ft 439 kts 218°
2026-04-29 19:42 22.88206 -17.71865 43974 ft 441 kts 218°
2026-04-29 19:42 22.82906 -17.75206 43976 ft 441 kts 217°
2026-04-29 19:43 22.77571 -17.78563 43965 ft 442 kts 218°
2026-04-29 19:43 22.72263 -17.81897 43978 ft 442 kts 218°
2026-04-29 19:44 22.66910 -17.85260 43976 ft 443 kts 218°
2026-04-29 19:44 22.61588 -17.88594 43964 ft 443 kts 218°
2026-04-29 19:45 22.56278 -17.91928 43969 ft 444 kts 218°
2026-04-29 19:45 22.50909 -17.95286 43976 ft 444 kts 218°
2026-04-29 19:46 22.45547 -17.98642 43966 ft 445 kts 218°
2026-04-29 19:46 22.40203 -18.01988 43960 ft 445 kts 218°
2026-04-29 19:47 22.34815 -18.05348 43967 ft 445 kts 218°
2026-04-29 19:47 22.29441 -18.08705 43969 ft 445 kts 218°
2026-04-29 19:48 22.24172 -18.11986 43960 ft 446 kts 217°
2026-04-29 19:48 22.18795 -18.15335 43970 ft 446 kts 218°
2026-04-29 19:49 22.13418 -18.18686 43964 ft 447 kts 218°
2026-04-29 19:49 22.08019 -18.22042 43960 ft 447 kts 218°
2026-04-29 19:50 22.02634 -18.25385 43960 ft 447 kts 218°
2026-04-29 19:50 21.97248 -18.28731 43962 ft 447 kts 218°
2026-04-29 19:51 21.92293 -18.31805 43965 ft 448 kts 218°